Вернуться в каталог

ARIANE 42P+ DEB

АктивенHEO
NORAD 26981·DEBRIS·🇫🇷 France

Запущен Oct 28, 1992 с Guiana Space Centre

Loading…

Ближайшие Пролёты (ближайшие 24 часа)

TLE

СвежийSource: Space-Track

Эпоха: Sep 11, 2026, 06:19 UTC

1 26981U 92072L   26254.26321216 -.00000019  00000-0  00000-0 0  9999
2 26981   9.5823 239.6871 6454489 212.8012  81.6581  2.88992701139342

Отслеживайте ARIANE 42P+ DEB в реальном времени с AllMySat

Download on the App Store